SCOUT G-1 DEB, 40216

Orbit data source: Space-Track

SCOUT G-1 DEB, 40216 is space debris in LEO originally from a launch on Fri, 14 Nov 1986 UTC launched from the Air Force Western Test Range (AFWTR). Debris objects in space refer to the collection of defunct objects orbiting the Earth. Examples of debris include non-operational satellites, rocket bodies, and fragments generated from explosions, collisions, or faulty payload assembly.

Loading next visibility...
Identifier
40216, 1986-088E
Orbit
LEO
Last TLE update
1 year ago
Origin
Manufacturer
Unknown
Mission
Spacecraft
Bus & Motor
Unknown
Mass
Unknown
Launch date (UTC)
1986-11-14 (39 years ago)
Launch vehicle
Unknown
Launch site
Air Force Western Test Range (AFWTR)
Object type
Payload
Rocket body
Debris
Shape & HBR
Unknown
Radar Cross Section
Small (<0.1 m²)

Expand to show TLE details & history

TLE from 1 year ago
0 SCOUT G-1 DEB
1 40216U 86088E   24094.03236041  .00003735  00000-0  29639-2 0  9990
2 40216  89.5872 196.3225 0056079  93.9757 266.7830 13.90368818512590
Epoch: 2024-04-03T00:46Z
TLE epoch observation values (Epoch: 2024-04-03T00:46:35.939Z)
Latitude
-0°
Longitude
-7.17698°
Altitude
932.879 km
Speed
7.384 km/s
True Right ascension
13h 05m 17s
True Declination
0° 00' 00"
Sunlit
Object was in full shadow at epoch
Visualization orbit readout
Latitude
32.73089°
Longitude
151.7994°
Altitude
893.511 km
Speed
7.421 km/s
Apparent Right ascension
01h 16m 57s
Apparent Declination
-6° 35' 46"
Sunlit
Object is in daylight
Visualization observer readout
Local Sidereal Time
23:15:03
Azimuth
141.68° SSE
Elevation
35.658°
Doppler factor
1
Orbital elements
Apogee altitude
965.282 km
Perigee altitude
883.379 km
Semi-major axis
7,302.467 km
Eccentricity
0.00561
Inclination
89.5872°
RAAN
196.3225°
Arg. of periapsis
93.9757°
True anomaly
Unknown
Mean anomaly
266.783°
Eccentric anomaly
Unknown
Mean motion
3.47807 °/min
Orbital period
103.51 mins
BSTAR
0.0029639
Loading maneuver chart data...
Loading SW <> Apogee altitude chart data...
Loading historical data...
Loading historical data...
Loading historical data...
Loading historical data...
Loading historical data...
Loading historical data...
Loading historical data...
Other satellites on launch #88 in the year 1986 (1986-11-14 UTC)

SCOUT G-1 DEB Visibility forecast

Observer location: undefined°, undefined°

Span
Click to sort rows by Start time (UTC) header in descending order
Start Az.
Max El. time (UTC)
Max El. Az.
Max El.
End time (UTC)
End Az.
6 mins2025-07-11 12:35:06.114Z318.577° NNW2025-07-11 12:38:06.114Z280.353° WNW18.921°2025-07-11 12:41:06.114Z245.274° WSW
8 mins2025-07-11 22:27:06.114Z128.317° SE2025-07-11 22:30:06.114Z86.165° E27.196°2025-07-11 22:35:06.114Z20.653° NNE
8 mins2025-07-12 00:10:06.114Z222.959° SW2025-07-12 00:13:06.114Z265.866° W28.384°2025-07-12 00:18:06.114Z335.818° NNW
|